{"data":{"norad_id":60260,"epoch":"2026-09-21T02:30:29.765952Z","epoch_age_seconds":129566,"freshness":"FRESH","line1":"1 60260U 24131F   26264.10451118  .00000494  00000+0  25774-4 0  9991","line2":"2 60260  53.1590 222.9015 0001244  83.2133 276.9011 15.34393463121664","mean_motion":15.34393463,"eccentricity":0.0001244,"inclination_deg":53.159,"raan_deg":222.9015,"arg_perigee_deg":83.2133,"mean_anomaly_deg":276.9011,"bstar":2.5774e-5,"rev_number":12166,"period_min":93.848157902378,"perigee_km":461.87166667479,"apogee_km":463.5736725606,"semimajor_km":6840.8596696177,"source":"CELESTRAK","updated_at":"2026-09-22T09:00:49.187081Z"}}